Flag for Germany Weather past 2 weeks in Paderborn, North Rhine-Westphalia, Germany

Now
48 °F

Passing clouds.


Feels Like: 44 °F
Forecast: 44 / 67 °F
Wind: 10 mph from Southwest

Location: Paderborn / Lippstadt

Current Time: May 30, 2015 at 9:27:51 PM

Latest Report: May 30, 2015 at 8:50 PM


Visibility: N/A

Pressure: 30.01 "Hg

Humidity: 71%

Dew point: 39 °F

Location of PaderbornLocation

Historic Weather in Paderborn — Graph

°F

Paderborn temperature yesterday

Maximum temperature yesterday: 59 °F (at 1:50 PM)
Minimum temperature yesterday: 45 °F (at 2:50 AM)
Average temperature yesterday: 53 °F

Past Weeks' High & Low Weather Summary

 TemperatureHumidityPressure
High68 °F (May 18, 3:50 PM)100% (May 16, 7:20 PM)30.33 "Hg (May 16, 7:20 PM)
Low37 °F (May 16, 4:50 AM)31% (May 19, 3:50 PM)29.62 "Hg (May 18, 9:20 PM)
Average51 °F68%30.04 "Hg
* Reported May 15 8:20 PM — May 30 8:20 PM, Paderborn, Weather by CustomWeather, © 2015

Note: Actual official high and low records may vary slightly from our data, if they occured in-between our weather recording intervals... More about our weather records

Advertising

Paderborn weather history for previous 24 hours

 ConditionsComfort  
Time TempWeatherWind HumidityBarometerVisibility
8:20 PM
Sat, May 30
50 °FPassing clouds.8 mph71%30.01 "HgN/A
7:50 PM50 °FPassing clouds.10 mph67%30.01 "HgN/A
7:20 PM50 °FPassing clouds.10 mph67%30.01 "HgN/A
6:50 PM52 °FPassing clouds.13 mph58%30.01 "HgN/A
6:20 PM52 °FPassing clouds.13 mph58%30.01 "HgN/A
5:50 PM52 °FSunny.16 mph58%29.98 "Hg10 mi
5:20 PM50 °FSunny.17 mph67%29.98 "Hg10 mi
4:50 PM48 °FSunny.14 mph71%29.98 "Hg10 mi
4:20 PM48 °FScattered clouds.14 mph71%29.98 "HgN/A
3:50 PM46 °FScattered clouds.14 mph76%29.98 "HgN/A
3:20 PM46 °FBroken clouds.16 mph76%29.98 "HgN/A
2:50 PM48 °FBroken clouds.15 mph76%29.98 "HgN/A
2:20 PM48 °FScattered clouds.13 mph71%29.95 "HgN/A
1:50 PM46 °FScattered clouds.12 mph82%29.95 "HgN/A
1:20 PM43 °FLight rain. Broken clouds.13 mph87%29.95 "Hg5 mi
12:50 PM45 °FSprinkles. Fog.22 mph87%29.92 "Hg2 mi
12:20 PM48 °FScattered clouds.14 mph66%29.89 "HgN/A
11:50 AM50 °FScattered clouds.12 mph76%29.89 "HgN/A
11:20 AM46 °FScattered clouds.8 mph82%29.89 "HgN/A
10:50 AM54 °FRain showers. Scattered clouds.17 mph54%29.89 "Hg5 mi
10:20 AM50 °FScattered clouds.12 mph71%29.89 "HgN/A
9:50 AM50 °FScattered clouds.15 mph67%29.89 "HgN/A
9:20 AM50 °FScattered clouds.14 mph71%29.86 "HgN/A
8:50 AM48 °FScattered clouds.10 mph76%29.86 "HgN/A
8:20 AM48 °FScattered clouds.12 mph82%29.86 "HgN/A
7:50 AM46 °FScattered showers. Partly sunny.8 mph87%29.86 "HgN/A
7:20 AM46 °FScattered clouds.6 mph87%29.83 "HgN/A
6:50 AM45 °FScattered clouds.6 mph93%29.83 "HgN/A
6:20 AM45 °FBroken clouds.5 mph93%29.83 "HgN/A
5:50 AM45 °FPartly cloudy.8 mph93%29.80 "HgN/A
5:20 AM45 °FPartly cloudy.10 mph93%29.80 "HgN/A
4:50 AM46 °FPartly cloudy.10 mph87%29.80 "HgN/A
4:20 AM46 °FPassing clouds.10 mph87%29.77 "HgN/A
3:50 AM46 °FLight rain. Passing clouds.12 mph87%29.77 "HgN/A
3:20 AM45 °FLight rain. Passing clouds.13 mph87%29.77 "HgN/A
2:50 AM45 °FLight rain. Passing clouds.13 mph87%29.77 "HgN/A
2:20 AM45 °FLight rain. Passing clouds.10 mph87%29.77 "HgN/A
1:50 AM45 °FLight rain. Passing clouds.13 mph87%29.77 "HgN/A
1:20 AM45 °FRain. Partly cloudy.13 mph93%29.80 "Hg6 mi
12:50 AM45 °FRain. Partly cloudy.10 mph93%29.77 "Hg5 mi
12:20 AM46 °FRain. Passing clouds.12 mph87%29.77 "HgN/A
11:50 PM
Fri, May 29
54 °FPassing clouds.9 mph63%29.74 "HgN/A
11:20 PM54 °FPassing clouds.7 mph58%29.74 "HgN/A
10:50 PM54 °FPassing clouds.10 mph58%29.74 "HgN/A
10:20 PM54 °FPartly sunny.8 mph63%29.74 "HgN/A
9:50 PM55 °FPartly sunny.9 mph59%29.74 "HgN/A
9:20 PM54 °FPartly sunny.8 mph77%29.74 "HgN/A
Weather by CustomWeather, © 2015

See weather overviewHow to use our weather pages